EHI
0 0 0 0 0 0 0 0 0 0 0 0 1 2 4 6 8 8 6 4 3 3 2 2 3 2 1 2 6 10 10 9 7 5 3 2 2 2 3 3 3 3 2 2
0 0 0 0 0 0 0 0 0 0 0 0 1 3 5 7 8 8 6 5 4 3 3 3 3 3 3 3 6 9 9 6 3 2 1 1 1 1 1 2 2 2 1 1
0 0 0 0 0 0 0 0 0 0 0 1 2 4 7 9 9 8 6 5 5 4 3 3 4 5 6 6 6 7 6 4 2 1 0 0 0 0 0 0 1 1 1 0
0 0 0 0 0 0 0 0 0 1 1 2 4 6 7 9 9 8 6 4 4 4 4 4 6 7 8 8 7 6 5 5 4 2 1 0 0 1 0 0 0 0 0 0
0 0 0 0 0 0 0 0 1 2 2 3 5 6 7 8 9 8 5 3 2 3 4 5 6 8 9 8 5 4 4 4 3 2 1 0 0 0 0 0 0 0 0 0
0 0 0 0 0 0 0 0 1 2 3 4 5 5 5 5 6 7 6 3 3 3 4 5 6 7 7 6 3 2 2 2 1 0 0 0 0 0 0 0 0 0 0 0
0 0 0 0 0 0 0 0 0 1 2 3 4 3 2 3 4 6 5 4 3 3 4 4 4 5 5 4 2 1 1 0 0 0 0 0 0 0 0 0 0 0 0 0
0 0 0 0 0 0 0 0 0 1 2 4 4 2 2 3 5 6 5 4 3 3 3 4 3 3 3 2 1 1 0 0 0 0 0 0 0 0 0 0 0 0 0 0
1 1 1 1 0 0 0 0 1 3 5 5 5 4 3 4 7 7 6 4 3 3 4 3 2 2 2 1 1 0 0 0 0 0 0 0 0 0 0 0 0 0 0 0
2 2 2 2 1 0 0 0 2 5 6 6 6 5 3 3 6 6 6 5 4 4 4 3 1 0 1 1 0 0 0 0 0 0 0 0 0 0 0 0 0 0 0 0
3 3 3 3 2 1 0 1 3 5 6 6 5 3 1 2 3 4 5 5 4 3 3 1 0 0 0 0 0 0 0 0 0 0 0 0 0 0 0 0 0 0 0 0
2 2 2 2 2 1 0 2 3 5 5 4 2 1 0 1 1 2 3 3 3 2 1 0 0 0 0 0 0 0 0 0 0 0 0 0 0 0 0 0 0 0 0 0
1 0 1 1 1 0 0 1 3 4 4 2 1 0 0 1 1 1 1 1 1 1 1 0 0 0 0 0 0 0 0 0 0 0 0 0 0 0 0 0 0 0 0 0
0 0 0 0 0 0 0 0 1 2 2 1 1 0 0 1 1 1 1 1 1 0 0 0 0 0 0 0 0 0 0 0 0 0 0 0 0 0 0 0 0 0 0 0
0 0 0 0 0 0 0 0 0 0 0 0 1 1 1 0 0 0 1 1 1 0 0 0 0 0 0 0 0 0 0 0 0 0 0 0 0 0 0 0 0 0 0 0
0 0 0 0 0 0 0 0 0 0 0 0 1 2 1 0 0 0 0 0 0 0 0 0 0 0 0 0 0 0 0 0 0 0 0 0 0 0 0 0 0 0 0 0
0 0 0 0 0 0 0 0 0 0 0 0 1 1 2 1 1 0 0 0 0 0 0 0 0 0 0 0 0 0 0 0 0 0 0 0 0 0 0 0 0 0 0 0
0 0 0 0 0 0 0 0 0 0 0 1 2 2 3 3 2 1 0 0 0 0 0 0 0 0 0 0 0 0 0 0 0 0 0 0 0 0 0 0 0 0 0 0
0 0 0 0 0 1 1 1 0 0 1 3 4 3 3 3 1 1 1 0 0 0 0 0 0 0 0 0 0 0 0 0 0 0 0 0 0 0 0 0 0 0 0 0
0 0 0 0 1 2 2 1 0 0 1 3 4 3 2 1 0 0 0 0 0 0 0 0 0 0 0 0 0 0 0 0 0 0 0 0 0 0 0 0 0 0 0 0
0 0 0 0 1 2 2 1 0 0 1 2 2 1 1 1 0 0 0 0 0 0 0 0 0 0 0 0 0 0 0 0 0 0 0 0 0 0 0 0 0 0 0 0
0 0 0 0 1 1 1 1 0 0 0 0 0 0 1 1 1 0 0 0 0 0 0 0 0 0 0 0 0 0 0 0 0 0 0 0 0 0 0 0 0 0 0 0
0 0 0 0 0 0 0 0 0 0 0 0 0 0 1 1 1 1 0 0 0 0 0 0 0 0 0 0 0 0 0 0 0 0 0 0 0 0 0 0 0 0 0 0
0 0 0 0 0 0 0 0 0 0 0 0 0 1 2 2 1 1 0 0 0 0 0 0 0 0 0 0 0 0 0 0 0 0 0 0 0 0 0 0 0 0 0 0
0 0 0 0 0 0 0 0 0 0 0 0 0 1 2 3 2 1 0 0 0 0 0 0 0 0 0 0 0 0 0 0 0 0 0 0 0 0 0 0 0 0 0 0
0 0 0 0 0 0 0 0 0 0 0 0 0 1 2 3 2 1 0 0 0 0 0 0 0 0 0 0 0 0 0 0 0 0 0 0 0 0 0 0 0 0 0 0
0 0 0 0 0 0 0 0 0 0 0 0 0 1 2 2 1 0 0 0 0 0 0 0 0 0 0 0 0 0 0 0 0 0 0 0 0 0 0 0 0 0 0 0
Wind_Speed
3 3 2 3 3 4 5 7 7 7 6 8 6 5 4 4 4 5 5 5 6 5 4 4 4 4 4 4 3 3 4 3 2 2 2 2 1 1 1 2 2 2 2 2
1 1 2 2 2 4 3 3 5 4 6 6 3 2 3 4 6 6 7 7 7 6 5 5 5 5 4 4 4 4 4 3 2 2 2 2 1 1 2 2 2 2 2 2
2 3 2 3 4 4 3 3 5 6 6 2 1 3 6 6 7 8 8 8 7 7 6 6 5 6 6 5 4 4 4 3 3 3 2 1 1 2 2 2 2 2 3 3
1 2 3 7 3 2 2 2 2 3 2 2 3 3 2 4 6 6 6 7 7 6 6 5 5 5 5 5 5 5 4 3 2 2 2 1 2 1 1 1 2 2 2 3
3 2 4 6 2 2 2 2 2 2 1 1 1 3 2 1 3 5 6 6 6 6 6 5 5 6 6 5 5 4 4 3 2 2 2 2 1 1 1 1 2 2 2 2
4 3 5 6 3 1 2 3 2 2 2 1 3 2 3 1 2 3 4 5 6 6 6 6 5 6 7 6 5 4 4 3 2 2 3 2 1 1 1 1 1 2 2 2
3 3 6 6 4 1 3 5 3 2 3 3 3 4 3 1 2 4 5 5 6 7 6 6 6 7 7 5 4 4 3 3 3 2 2 2 2 1 1 1 2 2 2 2
3 3 6 3 1 2 5 3 2 2 2 2 2 1 1 2 3 5 5 6 7 7 5 5 6 7 6 5 3 3 4 4 3 2 2 2 2 2 2 2 2 2 2 3
6 6 5 2 3 3 2 2 2 2 1 3 2 1 1 2 3 4 5 6 6 7 6 4 4 6 7 5 4 5 5 4 2 2 2 2 2 2 2 1 1 1 1 1
2 4 4 4 3 3 2 2 3 1 1 3 3 2 2 2 3 4 4 5 6 7 6 4 4 4 5 5 5 6 5 3 3 2 2 2 1 2 2 1 1 0 0 1
3 5 4 4 3 3 3 3 3 2 1 2 4 3 3 3 3 4 4 3 5 6 6 5 4 4 4 5 6 5 4 3 2 2 2 1 1 1 1 1 2 2 1 1
5 5 3 5 4 1 1 2 1 2 2 2 2 3 3 3 3 4 5 4 4 4 5 5 5 4 4 4 6 6 4 3 2 2 2 2 1 1 1 0 1 1 1 1
5 4 3 4 3 2 1 1 1 2 1 1 1 2 3 3 3 4 4 5 5 5 4 4 4 3 3 4 5 5 5 4 2 2 2 2 1 1 0 2 2 2 1 2
4 2 2 3 3 2 0 1 2 2 1 1 2 3 3 3 4 4 4 4 5 5 4 4 4 3 3 4 5 5 4 4 3 2 2 2 2 1 1 1 1 2 2 2
4 3 4 3 1 0 1 2 3 2 1 2 2 3 3 4 4 3 3 3 4 5 4 4 4 2 3 4 5 5 4 3 3 2 2 2 1 1 1 1 1 1 1 2
2 1 1 2 2 1 1 2 3 2 1 1 1 2 2 3 4 4 4 4 5 5 4 4 4 3 3 4 5 4 3 5 4 3 2 2 2 1 1 1 1 1 1 2
1 2 2 2 2 2 2 2 3 3 2 2 1 2 3 4 4 3 2 2 4 4 4 4 4 3 4 4 5 4 3 3 4 3 2 2 2 2 2 2 2 2 2 2
5 6 5 4 4 3 2 2 3 3 3 3 3 3 3 4 4 4 3 3 2 1 2 3 4 4 4 4 4 4 3 3 3 3 2 2 2 2 2 2 2 2 2 1
3 4 3 3 4 3 3 2 2 3 3 3 4 4 3 3 4 4 3 4 4 2 3 2 4 4 4 4 4 3 3 3 3 2 2 2 2 1 2 2 2 2 2 2
1 1 2 2 2 3 3 2 2 2 2 4 4 3 2 3 4 4 3 3 3 3 3 3 3 3 3 4 5 3 4 4 3 3 2 2 2 2 2 2 2 2 2 2
0 1 2 1 1 1 2 2 2 2 2 3 4 4 4 3 4 4 4 2 2 2 3 4 3 3 3 3 5 3 3 3 3 3 2 2 2 2 2 2 2 2 2 2
0 1 1 1 1 1 0 1 2 2 2 2 2 3 3 3 3 2 3 3 3 3 3 2 2 3 3 4 3 3 3 3 3 2 2 2 2 2 2 2 2 2 2 2
0 1 1 1 1 1 1 1 1 2 2 3 3 3 4 4 3 4 2 2 2 3 2 2 3 4 4 3 3 3 3 3 3 3 2 2 3 2 2 2 2 2 2 1
1 1 0 1 2 2 1 1 1 1 2 2 2 3 3 2 1 2 2 3 4 4 2 3 4 4 4 3 3 3 3 3 3 2 2 2 2 2 2 2 1 1 1 1
0 1 1 1 2 1 2 1 1 0 0 0 0 1 2 3 3 3 2 3 4 4 2 3 4 4 3 3 3 3 3 3 3 3 2 2 2 2 2 2 2 2 1 1
0 1 1 1 2 1 1 1 1 1 1 1 0 0 1 1 2 2 2 3 3 3 2 2 2 3 2 3 3 3 3 3 3 3 3 3 3 2 2 2 2 2 2 1
1 1 1 1 1 0 1 1 1 1 1 2 1 1 1 1 2 2 3 2 2 2 2 2 2 2 2 2 2 2 2 2 2 2 2 2 2 2 2 3 2 2 1 1
Wind_Direction
233 243 206 209 210 183 183 185 192 231 234 257 247 224 203 177 157 150 155 161 166 166 165 157 150 149 152 149 136 130 128 127 135 122 107 92 73 55 48 53 49 33 24 10
298 272 229 251 245 201 205 197 220 241 259 258 243 160 159 170 167 172 183 184 175 169 164 165 165 161 155 145 133 128 130 137 128 108 96 90 79 65 61 50 44 44 30 22
246 300 42 283 251 211 203 210 193 217 242 253 173 191 194 188 187 191 190 187 179 177 175 174 171 162 157 153 138 130 133 131 123 123 122 110 95 74 61 53 52 47 31 29
144 83 212 247 251 199 182 243 225 238 267 223 218 222 210 185 186 197 191 182 180 173 167 167 158 153 148 142 140 138 139 141 141 141 134 101 82 71 52 54 56 52 35 25
125 160 271 289 266 160 179 273 251 221 285 323 95 63 360 220 186 197 190 179 168 160 154 150 149 148 140 139 141 142 149 152 149 147 136 117 103 79 67 63 48 42 44 34
132 154 224 249 276 239 130 275 268 192 189 144 97 104 258 259 156 166 155 146 141 136 130 135 139 138 139 144 144 153 160 151 140 141 139 134 131 113 86 93 75 59 46 33
156 198 255 266 292 66 163 241 272 204 197 169 183 210 221 163 145 150 140 131 130 131 135 142 140 136 137 141 157 165 146 129 123 131 139 129 116 99 96 86 69 56 39 14
150 182 254 304 60 161 224 270 262 234 207 183 195 180 147 148 148 140 130 128 132 133 133 135 141 139 139 154 160 138 130 126 125 122 123 116 114 93 79 82 73 51 25 360
188 210 241 266 236 261 239 257 269 242 232 161 150 157 151 150 148 141 137 138 137 135 130 127 142 147 151 164 144 134 130 132 129 115 109 113 124 114 88 83 84 50 23 341
257 272 278 285 285 294 279 270 286 254 199 157 149 155 149 143 137 130 128 137 137 135 137 140 147 152 153 146 138 137 140 142 135 128 112 91 111 131 132 130 117 62 340 318
264 286 311 317 311 319 345 357 12 14 26 151 147 153 156 152 149 144 136 136 142 147 151 155 150 147 143 142 138 136 136 133 130 134 134 119 116 155 168 185 178 178 226 251
225 237 225 270 290 313 351 352 25 61 35 35 143 159 147 148 152 143 140 135 137 144 149 150 146 144 147 145 139 135 134 141 149 148 144 143 141 81 37 72 24 177 189 194
232 246 236 268 295 313 319 339 40 85 121 102 103 142 138 139 142 141 144 146 151 157 155 145 139 145 154 148 145 146 154 161 161 160 161 165 168 167 346 3 19 18 349 327
244 230 264 265 268 280 155 84 67 64 71 106 111 110 109 119 127 143 163 164 155 148 146 144 140 152 160 149 148 154 159 165 167 174 174 180 190 188 177 185 330 342 332 318
265 230 228 243 245 298 102 108 96 78 71 76 104 121 126 141 153 160 158 145 136 134 143 145 147 171 161 153 153 158 163 165 168 169 172 180 184 174 174 191 224 289 323 333
271 274 177 169 185 202 150 145 145 165 163 137 132 136 138 145 145 144 145 146 147 158 169 161 171 184 166 158 155 156 170 171 163 162 164 167 168 170 181 197 229 266 283 293
190 232 217 222 225 235 220 195 180 184 183 185 178 144 123 124 128 138 156 159 161 171 177 174 184 171 163 166 162 162 166 171 166 161 176 183 182 191 203 209 227 248 263 265
222 226 221 213 211 224 233 202 182 181 192 193 156 140 141 153 163 171 169 136 123 137 195 191 177 161 167 172 167 166 167 168 174 182 183 185 195 205 212 221 239 253 271 285
233 227 216 201 196 195 198 200 198 194 185 164 158 165 174 178 171 171 157 140 147 183 229 210 178 164 172 181 165 161 167 170 173 177 177 178 190 210 221 226 235 243 247 258
240 193 176 174 178 179 184 198 191 183 180 168 162 157 167 179 171 166 160 176 201 202 193 184 172 166 177 180 169 168 172 173 173 173 172 177 195 216 228 235 240 244 249 253
185 152 143 143 159 173 176 168 155 169 184 172 170 175 181 180 169 158 159 197 239 189 170 171 172 176 180 173 166 161 165 173 178 181 188 197 205 214 227 242 247 248 253 258
79 127 135 136 125 135 183 153 152 165 168 166 170 166 161 165 165 168 190 203 203 180 168 173 178 186 178 163 158 163 172 177 178 178 188 200 209 220 232 240 250 256 257 258
19 122 135 151 168 166 119 118 157 177 184 188 188 183 178 181 178 176 208 217 177 177 178 192 192 184 175 165 167 174 176 177 179 185 195 202 203 209 218 228 234 240 246 255
16 35 58 134 122 114 145 219 224 208 193 194 201 191 173 168 197 207 192 183 176 176 184 191 188 185 173 170 170 176 181 184 186 193 200 203 201 202 209 213 221 239 245 253
64 74 87 123 142 185 209 185 118 78 110 164 226 197 181 178 185 193 178 180 179 172 169 176 173 170 170 172 175 181 189 195 193 190 195 202 205 203 208 207 206 217 228 239
167 165 183 183 190 201 184 151 153 178 164 143 288 229 170 152 161 164 165 170 170 165 158 159 168 172 173 176 185 192 196 196 196 196 200 203 205 206 207 210 217 222 229 236
62 63 51 32 23 52 168 160 162 176 166 163 191 227 175 150 148 153 152 156 153 153 154 160 169 177 176 182 188 192 191 190 193 200 205 206 207 207 207 209 212 213 216 219